User: anonymous   Login
Location: Unspecified
(0.0000°N, 0.0000°E)
Time: 18:04:29
(UTC+00:00)
Language:

TBA - TO BE ASSIGNED - Orbit

View from above orbital plane
View from above orbital plane
View from above satellite
View from above satellite

Ground track
Ground track

The orbit is defined by the following mean orbital elements,

1 68235U          26145.50003470 +.00000000 +00000-0 +75079-5 0 00007
2 68235  53.1586 293.6818 0000576  87.0119 189.6015 15.34395750    07
Epoch (UTC): 25 May 2026 12:00:02
Eccentricity: 0.0000576
inclination: 53.1586°
perigee height: 462 km
apogee height: 463 km
right ascension of ascending node: 293.6818°
argument of perigee: 87.0119°
revolutions per day: 15.34395750
mean anomaly at epoch: 189.6015°

The dashed part of the orbit path shows where the satellite is in the earth's shadow,  

DLR